sat.trackr.live / text

‹ back to catalog

STARLINK-31087

NORAD 58597 · 2023-200J

PAYLOAD ACTIVE UNKNOWN

§ Identity

Operator
Country
US
Launch date
2023-12-19
Launch site
AFETR
Launch vehicle
Mass (kg)
RCS (m²)

Purposes: comms

External: N2YO · Heavens-Above · Gunter

§ Orbital elements

Epoch: 2026-05-25T04:27:05.673312Z

Period
94.27 min
Inclination
43.0058°
Eccentricity
0.0001259
Mean motion
15.27581019 rev/d
Perigee alt
482.2 km
Apogee alt
483.9 km
Semi-major
6,861.2 km
B*
7.1530e-5
RAAN
96.5251°
Arg perigee
274.5987°
Mean anomaly
85.4721°
Rev number
13,520

§ Raw data

STARLINK-310871 58597U 23200J   26145.18548233  .00001707  00000+0  71530-4 0  99972 58597  43.0058  96.5251 0001259 274.5987  85.4721 15.27581019135200

JSON: /api/v1/satellites/58597 · /tle

For live sub-satellite position, see the globe view (requires WebGL).

§ Visibility from observer

Set your observer location to see the next 7 days of passes ≥ 10°. The values pass through the URL so the page stays shareable.

No JS? Fill the form by hand. The geolocation button needs JavaScript.